Theta_e
284 283 282 281 281 280 279 278 278 277 277 277 277 277 276 276 276 275 275 276 276 276 277 276 275 274 274 273 273 273 273 273 273 273 273 273 273 273 273 273 274 274 275 276 275 274 274 274 274 274 274 274 274 274 275 275 275 275 275 276 276 277 278 279 280 280 282 284 286 287 289 292 294 295 295 296 297 297 298 298 298 300 301 301 300
283 282 281 281 280 279 278 277 277 277 276 276 276 276 276 276 275 275 275 275 276 277 277 275 274 274 273 273 272 272 272 272 272 272 272 272 273 273 273 273 273 273 274 275 274 273 274 274 274 274 274 274 274 274 275 275 275 276 276 276 277 277 278 279 280 281 282 285 286 287 289 292 293 294 295 296 297 297 298 299 299 300 301 302 302
282 281 281 280 279 278 277 277 276 276 276 276 276 276 276 275 275 275 275 275 276 277 276 275 274 273 272 272 271 271 271 272 272 271 272 272 272 272 272 272 273 273 273 273 273 273 273 273 273 273 273 274 274 274 274 275 275 276 276 276 277 277 278 279 281 282 283 285 287 288 290 292 293 294 295 296 297 298 298 299 299 300 301 302 303
281 280 280 279 278 277 276 276 276 276 276 275 275 276 276 275 275 275 275 275 276 276 276 275 273 272 271 271 271 271 271 271 271 271 271 271 271 272 272 272 273 273 273 272 272 272 273 273 273 273 273 273 274 274 274 274 275 275 276 276 277 278 278 279 281 282 283 285 286 288 291 292 293 294 295 296 297 298 298 299 299 300 301 302 304
280 280 279 278 277 276 275 275 275 275 276 276 276 276 276 275 275 275 274 275 275 276 275 274 273 271 270 270 270 270 270 270 271 271 271 271 271 272 272 273 272 272 272 272 272 272 272 273 273 273 273 274 274 274 275 275 275 275 275 276 277 278 279 280 281 283 284 285 286 288 290 292 293 294 295 296 297 298 298 298 299 300 301 303 305
280 279 278 277 276 275 275 275 275 275 276 276 276 276 276 275 275 275 274 275 275 275 274 273 272 270 270 270 270 270 270 270 271 271 271 271 272 272 272 272 272 271 271 271 271 272 272 273 273 273 273 274 274 275 275 275 275 275 275 276 276 277 279 280 282 284 286 287 288 289 290 292 293 294 295 295 297 297 298 298 299 300 301 302 304
279 278 277 276 275 274 274 274 275 276 276 276 275 275 275 275 275 275 274 275 275 275 274 272 270 270 269 270 270 270 270 270 271 271 271 271 271 271 271 271 271 271 271 272 272 272 273 273 273 273 273 274 274 275 275 275 276 276 276 276 276 277 277 279 280 283 285 287 289 290 291 292 293 294 294 295 296 297 298 299 299 300 301 303 304
278 277 276 275 274 274 274 275 275 275 275 275 275 275 275 275 275 274 275 275 275 275 273 271 269 269 269 270 270 270 270 270 270 271 271 271 271 271 271 271 272 272 272 273 273 273 274 274 274 274 274 274 275 275 275 276 276 276 276 276 276 277 277 277 278 280 283 285 288 290 292 293 293 294 294 295 296 297 298 299 300 301 301 303 304
277 276 275 274 274 274 274 275 275 275 274 274 274 274 274 274 274 274 275 275 275 274 272 270 269 269 269 270 270 270 270 270 270 270 270 271 271 272 272 272 273 273 273 273 274 274 275 275 275 275 275 275 275 275 276 276 276 276 276 276 277 277 277 278 278 280 282 283 287 291 292 292 293 294 294 295 296 296 297 298 299 300 302 303 305
276 275 274 274 274 274 274 275 275 274 274 273 273 274 274 274 274 274 274 275 275 273 270 269 269 269 269 270 270 270 270 270 270 270 271 272 272 273 273 273 273 274 274 275 275 275 276 276 276 277 276 276 277 277 277 277 278 278 278 277 277 278 278 279 279 281 282 282 286 291 292 292 292 293 294 295 296 296 296 298 299 300 302 304 305
275 275 274 273 274 274 274 274 274 274 273 273 274 274 274 274 274 274 274 275 274 271 269 268 269 269 269 269 269 269 269 269 270 271 272 273 273 273 274 274 274 275 276 276 276 277 277 277 277 278 278 278 278 278 278 278 279 279 279 279 279 279 279 280 280 281 282 282 285 289 291 292 292 293 294 294 295 295 296 297 299 301 303 304 305
275 274 273 273 274 274 274 274 273 273 273 273 273 274 274 273 273 274 274 273 271 269 268 268 268 268 268 268 269 269 269 269 270 271 272 273 274 274 275 275 275 276 276 277 277 277 277 278 278 278 278 278 278 279 279 278 279 279 279 280 280 280 280 281 281 281 282 283 284 287 290 291 292 292 293 293 294 294 295 295 297 299 301 304 306
274 273 273 273 273 273 273 273 273 273 273 273 273 273 273 272 272 273 273 271 268 268 268 268 268 268 268 268 268 268 268 269 270 271 272 273 274 275 275 276 276 276 276 276 276 276 277 277 277 277 278 279 279 279 279 278 278 279 279 279 280 280 280 281 282 283 283 283 284 286 288 290 291 292 292 292 292 293 293 293 294 295 297 301 305
273 272 272 272 273 273 273 273 273 273 273 273 273 272 272 271 272 273 271 268 267 267 267 267 267 267 267 267 267 267 268 269 270 271 273 274 275 275 276 276 276 276 276 275 275 276 276 276 277 277 278 279 279 280 279 279 279 279 279 279 279 279 280 281 283 284 284 284 285 286 287 289 290 291 291 291 291 291 291 292 292 293 294 295 299
272 271 271 271 272 273 272 272 272 272 272 272 272 271 271 271 272 271 268 266 266 267 267 267 267 267 266 267 267 267 268 269 270 272 273 274 275 275 275 275 275 275 275 275 275 275 276 276 277 277 278 278 279 280 280 280 279 279 279 279 279 279 280 281 282 284 284 285 286 287 288 289 290 290 290 290 290 290 291 291 291 292 293 293 294
271 270 270 271 272 272 272 272 272 272 272 272 272 271 271 271 270 268 266 266 266 266 266 267 266 266 266 267 267 267 268 269 271 272 273 274 275 275 275 275 275 275 275 275 275 275 275 276 276 277 278 278 279 280 280 280 280 280 280 280 279 280 281 282 283 283 284 285 286 287 288 289 289 289 289 290 290 290 290 290 291 292 292 293 294
270 270 270 271 272 272 272 272 272 272 272 271 271 271 271 270 268 266 265 265 265 266 266 266 266 266 266 267 267 268 269 270 271 272 273 274 275 275 275 275 274 275 275 275 275 275 276 276 276 277 278 278 279 280 280 281 281 281 281 280 280 280 281 282 283 284 284 285 286 287 288 288 289 289 290 290 290 290 290 291 291 292 292 293 294
269 270 270 271 272 272 272 272 272 272 271 271 270 270 270 269 267 265 265 265 265 265 265 265 266 266 267 267 268 269 270 270 271 272 273 274 274 275 274 275 275 275 275 275 275 275 276 276 276 277 278 278 279 280 281 281 281 281 281 281 281 281 281 282 283 284 285 286 286 287 287 288 289 289 289 289 289 290 291 291 291 292 292 293 293
270 270 271 271 271 272 272 271 271 271 270 270 270 270 270 269 266 265 264 264 265 265 265 265 265 266 267 268 269 269 270 270 271 272 273 274 274 274 275 275 275 275 275 275 275 275 275 276 276 277 277 278 279 280 281 282 282 282 282 281 281 282 282 282 284 285 286 286 287 287 287 288 288 288 288 289 289 290 290 291 291 291 292 293 293
271 271 271 271 271 271 271 271 271 270 269 269 269 269 269 268 266 265 265 264 264 265 265 265 266 267 268 268 269 270 270 270 271 272 273 273 274 275 275 275 275 275 275 275 275 275 275 275 276 276 277 278 279 280 281 282 282 283 282 282 282 282 282 283 284 284 286 287 287 288 288 288 288 289 289 289 289 290 290 290 291 292 293 293 293
271 271 271 271 271 270 270 270 270 270 269 268 268 268 268 267 266 265 265 265 264 265 265 265 266 268 268 269 270 270 270 270 271 271 272 273 274 275 275 275 275 275 275 275 274 274 274 275 275 276 276 277 278 279 280 281 282 283 283 283 283 283 283 283 284 284 285 286 286 287 288 289 289 289 289 290 290 290 290 291 292 293 294 295 294
271 271 270 270 270 270 270 269 269 269 269 268 268 268 267 266 266 266 266 265 264 264 265 266 267 268 269 270 270 270 270 271 271 271 272 273 274 275 275 275 275 275 275 274 274 274 274 274 274 275 276 277 278 279 280 281 282 283 284 284 284 284 284 284 285 285 285 285 286 287 287 288 289 289 290 290 290 291 291 291 293 294 295 296 296
270 270 270 270 269 269 269 269 268 268 268 268 268 268 267 266 266 266 266 265 264 265 266 267 267 268 269 270 270 270 270 270 270 271 272 272 273 274 275 275 275 274 274 273 273 273 273 273 274 275 276 277 278 279 280 281 281 282 283 284 284 284 284 284 285 285 286 286 287 287 288 288 289 290 290 291 291 291 291 292 294 296 297 298 298
270 269 269 269 269 269 268 268 267 267 267 268 268 268 267 267 267 266 265 264 265 266 266 267 268 269 269 270 269 270 270 270 270 271 272 272 273 274 274 274 274 273 273 273 272 273 273 274 275 276 277 277 279 280 281 281 282 282 283 284 285 285 285 285 285 285 286 287 287 288 288 289 289 290 291 291 291 291 292 293 295 298 299 300 300
269 269 268 268 268 268 267 267 266 267 267 267 267 268 268 268 267 266 264 264 265 266 266 267 268 269 269 269 269 270 270 269 270 271 271 272 273 273 273 273 273 272 272 272 272 273 273 274 274 275 276 277 278 280 281 281 281 282 283 284 285 286 286 286 285 286 287 287 288 288 288 289 290 291 291 291 291 291 292 293 296 299 301 302 303
269 268 268 268 267 267 267 266 265 266 266 267 267 267 268 268 266 265 264 265 265 266 267 268 269 269 269 269 269 269 269 269 270 271 271 272 272 272 272 272 271 271 271 271 272 272 272 272 272 273 274 275 277 280 281 281 282 283 284 285 286 286 286 286 286 286 287 287 288 289 289 290 291 291 291 291 291 291 293 295 298 301 303 303 304
268 267 267 267 267 267 266 265 265 265 266 266 267 267 267 267 265 264 264 265 265 266 268 269 269 268 268 269 269 269 269 270 270 271 272 272 272 272 272 271 270 270 271 271 272 271 270 270 271 272 273 273 275 277 280 281 283 284 284 285 286 286 286 286 286 287 287 288 289 289 290 290 291 291 291 291 291 292 294 297 300 302 303 304 305
268 267 267 266 266 266 266 266 266 266 266 266 266 266 266 266 265 264 264 265 266 267 268 268 268 268 268 269 269 269 269 270 270 271 272 272 272 272 271 270 270 270 271 271 271 270 269 269 270 270 271 272 273 274 276 278 281 283 285 286 287 286 286 287 287 287 287 288 289 290 290 290 290 290 291 291 291 293 295 298 301 302 302 304 305
267 267 266 266 265 265 266 266 266 266 266 267 266 266 266 266 265 264 265 265 266 268 268 268 268 268 268 268 268 269 269 270 271 271 272 272 272 271 271 270 270 270 271 270 270 269 268 269 269 270 270 271 271 272 273 274 276 279 282 285 287 287 287 287 287 288 288 288 289 290 290 290 290 290 291 291 292 294 297 299 301 302 302 303 303
266 265 265 265 265 265 265 266 266 267 267 267 266 266 266 266 266 265 265 266 266 267 268 268 268 268 268 268 268 269 269 270 271 271 271 271 271 271 270 270 270 270 270 269 268 268 268 268 269 269 270 270 270 271 272 273 274 275 277 279 283 286 288 289 288 288 289 289 289 290 290 290 291 291 291 292 292 295 298 300 301 302 302 302 302
264 264 265 266 266 266 266 266 267 267 267 267 266 266 266 266 266 266 265 265 266 267 267 267 267 267 268 268 268 268 269 270 270 270 270 270 270 270 269 269 269 269 269 267 267 268 268 268 269 269 269 269 270 270 271 271 272 273 274 275 278 281 285 288 289 290 290 290 290 290 290 291 291 291 292 292 293 296 299 300 301 302 302 302 302
265 264 264 265 266 267 267 267 267 267 267 267 267 267 267 266 266 266 266 265 265 265 265 266 266 266 267 267 268 268 269 269 269 269 269 269 269 269 268 267 267 268 267 266 266 267 268 268 269 269 269 269 269 270 270 271 271 272 273 274 275 277 279 282 284 288 290 290 290 290 291 291 291 291 292 292 293 296 299 300 300 302 303 302 302
267 265 265 265 266 266 266 266 266 266 266 266 266 267 267 266 264 265 266 267 267 266 265 265 265 265 266 266 267 267 268 269 268 268 268 268 268 268 266 265 265 266 266 265 265 266 267 268 268 268 269 269 269 269 270 270 271 271 272 272 273 274 276 277 279 284 288 291 290 290 291 291 291 291 292 293 294 296 299 300 300 302 303 302 302
268 267 266 266 266 265 266 265 265 265 265 265 265 265 264 264 263 262 264 265 266 266 266 265 265 266 265 265 265 267 267 268 267 267 267 267 267 266 265 264 264 265 264 264 264 265 266 267 268 268 268 269 269 269 270 270 270 271 271 271 272 273 274 275 277 281 285 289 290 291 290 291 291 291 292 293 294 296 299 300 300 301 302 302 302
267 267 267 267 266 265 265 265 265 265 264 264 264 263 262 262 261 260 259 259 259 261 262 263 264 264 263 263 264 265 266 266 266 266 266 266 266 264 263 263 263 263 263 263 263 264 266 267 267 267 268 269 269 269 269 270 270 270 270 271 271 272 272 273 275 278 280 284 288 291 291 291 291 292 292 293 295 296 298 299 300 301 302 302 302
266 265 265 266 266 265 265 264 264 264 264 263 263 262 262 261 260 259 258 257 256 257 258 260 263 264 263 263 264 264 265 265 265 264 265 265 264 262 261 261 261 261 262 262 263 264 265 266 267 267 268 268 269 269 269 269 270 270 270 270 271 271 271 272 274 275 277 280 285 289 291 292 292 292 293 293 294 296 298 299 300 301 301 301 301
266 265 264 265 265 265 265 264 264 264 263 263 262 262 261 261 260 259 257 256 256 256 257 258 260 262 263 263 263 263 263 264 264 264 264 264 262 261 261 260 260 261 261 261 262 263 264 265 266 267 267 268 269 269 269 269 270 270 270 270 270 271 271 272 273 273 275 277 281 285 290 292 292 292 293 294 294 296 298 299 299 300 301 301 301
266 265 265 265 265 264 264 263 263 263 263 262 262 262 261 261 260 259 258 257 256 256 256 257 257 258 259 261 261 261 262 264 265 264 263 262 261 260 260 260 260 260 260 261 261 262 263 264 265 266 267 267 268 269 269 269 270 270 270 270 270 270 271 271 271 272 273 275 276 280 284 290 292 293 293 293 294 296 298 299 299 300 300 300 301
265 265 265 265 264 264 264 263 262 262 262 262 262 262 262 261 260 259 258 257 257 256 256 256 256 257 257 259 261 261 261 260 260 260 260 260 260 260 260 260 260 260 260 260 261 262 262 263 265 266 266 267 268 269 269 269 269 270 270 270 270 270 270 271 271 271 271 272 274 275 279 284 290 293 293 293 294 296 297 298 299 299 299 299 301
263 263 263 263 264 263 263 263 262 262 262 262 262 262 262 261 260 259 258 258 257 257 256 256 257 257 258 259 261 261 259 257 257 257 258 258 259 259 259 259 259 259 260 260 261 261 262 263 264 265 266 266 267 268 269 269 269 270 270 270 270 270 270 270 270 270 270 271 272 273 275 278 284 290 294 294 294 295 297 298 298 299 299 300 301
262 261 261 262 263 263 262 262 262 262 262 262 262 262 262 261 260 260 259 258 257 257 257 257 257 258 258 259 260 260 258 256 256 257 257 257 258 258 259 259 259 259 259 260 260 261 262 263 264 265 266 266 267 268 269 269 269 269 270 270 270 270 270 270 270 270 270 270 271 272 273 275 279 285 291 294 294 295 297 298 298 299 299 300 300
262 261 261 262 262 262 262 262 262 262 262 262 262 262 262 261 261 260 260 259 257 257 257 257 258 259 259 259 259 260 259 258 257 257 257 258 258 258 258 259 259 259 259 260 260 261 262 263 264 265 265 266 266 267 269 269 269 269 270 270 270 270 270 270 270 269 270 270 270 271 272 274 276 281 287 292 294 294 296 297 298 298 299 299 300
263 263 262 262 262 263 263 262 262 262 262 262 262 261 261 261 261 260 260 259 258 257 257 258 259 260 260 260 260 260 260 259 258 257 258 258 258 258 258 259 259 260 261 261 261 262 262 263 264 264 265 266 266 267 268 269 269 269 269 270 270 270 270 270 270 269 269 269 270 270 271 273 275 279 285 291 294 294 295 296 297 298 299 299 299
264 263 263 262 262 262 262 262 262 262 261 261 261 261 261 261 260 260 259 259 259 258 258 258 259 259 260 260 261 261 260 259 258 258 258 258 259 259 259 260 260 261 262 262 263 262 263 263 264 264 265 266 266 267 268 269 269 269 269 269 270 270 270 269 269 269 269 269 270 270 271 273 275 277 282 289 293 294 294 295 296 297 298 298 298
263 263 262 262 262 262 262 262 262 261 261 261 260 260 260 260 260 259 259 259 259 258 258 258 259 259 259 260 260 260 259 259 258 258 258 258 259 259 260 260 261 262 262 263 264 264 263 264 264 264 265 266 266 267 268 269 269 269 269 270 270 270 270 269 269 269 269 269 269 270 271 272 274 276 281 287 292 294 294 294 295 297 298 298 298
263 262 262 262 262 261 261 261 261 261 261 261 260 260 260 259 259 259 259 259 259 258 258 258 258 258 259 259 259 259 259 259 259 259 259 259 259 260 261 261 262 263 263 263 264 264 264 264 264 264 265 265 266 267 268 269 269 269 269 270 270 270 269 269 269 269 269 269 269 269 270 272 274 276 280 285 290 293 294 294 295 296 297 297 298
263 263 262 262 262 261 261 261 261 260 260 260 260 260 260 259 259 259 259 259 259 258 258 258 258 259 259 259 259 259 259 259 259 259 259 260 260 261 261 262 262 263 264 264 265 265 265 265 265 265 265 266 266 267 268 269 269 269 269 270 270 270 269 269 269 268 269 268 269 269 270 271 273 276 280 285 290 293 293 293 294 295 295 296 297
263 262 262 262 262 261 261 261 260 260 260 260 260 260 260 259 259 258 259 259 259 259 258 258 258 259 259 259 259 259 259 259 259 259 260 260 260 261 261 262 262 263 264 264 265 265 265 265 265 265 266 266 267 267 268 269 269 269 269 269 270 270 269 269 268 268 268 268 268 269 270 271 272 274 278 284 290 292 293 293 293 294 294 295 296
262 262 262 262 262 262 261 261 261 261 260 260 260 260 259 259 259 258 258 259 259 259 259 258 259 259 259 259 259 259 259 260 260 260 260 260 261 261 261 262 262 263 263 264 264 265 265 266 266 266 266 266 267 268 268 269 270 269 269 269 270 270 269 269 268 268 268 268 268 269 269 270 271 273 275 280 286 290 292 293 293 293 294 294 294
262 262 262 262 262 262 261 261 261 261 260 260 260 260 259 259 259 259 258 258 259 259 259 259 259 259 259 259 259 259 260 260 260 260 260 261 261 261 262 262 262 263 263 264 264 265 265 266 266 266 266 266 267 268 269 269 270 269 269 269 270 270 270 269 268 268 268 268 268 268 269 269 270 271 273 276 280 284 288 291 293 293 293 293 294
262 262 262 262 261 261 261 261 261 260 260 260 260 260 259 259 259 259 259 259 259 259 259 259 259 259 259 259 259 259 260 260 260 260 260 261 261 261 262 262 262 262 263 263 264 265 265 265 265 265 266 266 267 268 269 269 270 270 269 269 269 270 270 269 269 268 268 268 268 268 268 268 269 270 271 273 275 278 281 286 291 293 293 293 293
Wind_Speed
34 31 29 27 25 23 21 19 18 16 14 13 12 11 11 12 13 14 15 16 17 19 21 21 21 21 20 19 19 20 21 22 21 21 22 23 24 24 25 25 26 27 28 30 30 29 30 31 32 31 30 31 31 30 30 31 32 33 33 33 34 34 34 28 20 19 25 33 36 35 34 34 33 33 32 31 32 32 32 30 31 29 28 33 40
33 30 28 26 24 22 19 18 16 15 13 11 10 10 10 11 12 13 15 16 18 20 21 22 22 23 22 22 20 20 21 21 21 20 21 23 23 24 24 24 26 27 29 31 30 29 30 31 32 31 30 31 32 31 31 31 31 33 33 32 33 34 34 32 25 18 20 27 32 34 34 34 34 34 32 31 31 31 30 28 27 29 29 32 37
32 29 27 25 22 20 18 17 15 13 11 10 9 9 9 10 11 13 15 16 18 20 21 22 23 23 22 22 21 20 20 21 20 21 22 23 24 24 24 24 26 29 30 30 29 29 29 31 31 30 29 30 31 30 31 31 30 32 34 34 34 35 35 35 31 22 18 22 28 31 31 32 34 33 32 32 30 29 29 28 26 29 33 33 36
30 27 25 24 21 19 17 15 14 12 10 9 8 8 8 10 11 13 14 15 18 20 21 22 23 22 20 20 20 20 21 21 21 22 22 23 24 24 25 26 28 30 30 30 29 29 30 30 30 30 29 30 30 30 30 31 31 31 33 34 35 35 34 36 36 32 25 21 24 31 30 29 32 33 31 30 29 28 29 27 25 28 33 34 36
29 27 25 22 20 18 17 15 13 11 10 9 7 7 8 9 10 12 14 15 17 19 21 22 22 20 19 20 21 21 22 22 22 23 23 23 25 26 26 28 30 30 29 29 29 29 31 32 31 30 29 29 29 30 31 32 32 32 32 32 33 34 33 35 37 38 32 22 22 29 30 29 31 30 28 27 26 26 26 25 24 27 31 34 35
28 26 23 21 18 17 16 15 13 11 10 8 7 7 8 9 10 12 13 15 17 19 20 22 21 19 19 20 21 22 22 22 22 23 24 25 26 26 27 28 29 29 29 29 30 31 32 33 33 32 31 30 31 32 33 33 33 34 34 32 32 33 33 33 34 35 34 29 24 25 28 31 29 25 25 27 25 24 24 23 24 26 28 31 34
28 25 22 20 18 17 16 15 13 11 10 8 7 7 7 8 10 12 13 15 17 19 20 21 20 19 20 21 21 22 22 22 22 23 24 25 26 26 27 28 29 29 29 31 32 33 35 36 36 35 34 33 33 34 34 34 34 34 34 32 32 32 32 32 32 32 30 28 24 23 26 30 28 23 24 26 23 22 22 20 19 21 24 27 30
27 24 22 20 18 17 16 15 13 11 9 8 7 7 7 8 10 12 13 15 16 18 19 19 19 19 20 21 21 22 22 23 23 23 24 25 26 27 27 28 29 30 31 32 33 34 36 37 37 37 36 35 35 36 36 35 34 34 33 32 31 31 30 30 30 31 28 23 21 23 24 24 22 21 22 22 17 16 18 17 17 20 23 25 28
26 24 22 19 18 18 17 15 13 11 9 7 7 7 7 8 10 11 13 14 16 18 18 18 18 19 19 19 20 21 22 23 22 22 24 26 26 27 27 27 28 30 33 34 35 36 37 38 38 37 37 38 40 41 41 40 39 37 34 32 31 29 28 27 27 28 25 19 18 19 17 13 14 15 16 17 14 14 17 18 18 22 24 25 27
25 25 22 20 20 19 17 15 12 10 9 8 7 7 7 8 10 11 12 14 16 17 17 17 17 17 18 19 20 21 22 22 23 24 26 28 29 29 30 30 30 30 32 33 34 35 37 38 39 39 39 41 43 45 45 45 45 44 40 36 34 31 28 26 26 25 19 13 14 15 9 7 13 15 15 16 16 16 18 17 18 22 21 19 24
27 25 23 21 22 20 17 15 13 11 9 8 7 7 7 8 9 10 12 14 15 15 16 16 16 16 17 19 20 22 23 25 25 26 28 29 30 31 32 32 31 31 32 33 33 35 35 36 37 38 39 41 41 42 43 44 46 47 46 43 42 39 34 29 26 25 19 14 15 15 8 7 14 17 16 16 16 15 17 17 17 17 12 10 13
28 25 23 23 22 19 17 15 13 11 9 8 7 6 6 8 9 10 12 14 14 14 15 16 16 17 17 18 21 22 26 28 28 28 30 31 31 31 32 32 32 32 33 34 35 35 35 34 34 35 36 37 38 38 40 42 44 45 45 45 45 44 42 37 33 29 23 17 16 17 15 12 14 17 16 15 15 15 16 17 18 16 12 10 9
28 25 25 24 22 19 17 15 13 11 10 8 6 5 6 7 8 10 11 12 12 13 15 16 17 17 17 19 22 23 27 30 29 29 31 32 32 32 31 31 32 33 34 34 35 35 35 35 34 34 34 35 36 36 36 38 40 41 41 41 41 41 42 43 42 39 33 26 21 22 23 20 17 16 15 13 13 15 15 16 19 20 16 13 13
28 26 25 24 22 20 17 15 13 11 10 8 6 5 5 6 7 9 10 10 10 12 15 17 18 18 19 21 22 23 27 31 30 30 32 33 33 32 31 31 33 33 33 34 35 35 34 34 34 34 34 34 35 34 33 33 34 33 33 34 35 36 36 38 40 39 39 36 31 30 31 29 25 21 17 15 16 18 19 19 21 22 21 23 27
27 27 25 23 22 20 17 15 13 11 10 8 6 5 4 5 6 7 8 9 10 12 14 15 17 18 18 19 21 24 28 29 29 30 32 33 34 32 30 31 32 32 33 34 34 35 34 34 34 35 35 35 35 35 33 32 32 30 27 27 30 32 32 33 33 32 33 34 34 33 33 31 30 25 21 21 22 23 26 26 27 28 29 29 31
27 26 25 24 22 20 17 16 14 11 10 8 5 4 3 4 5 5 7 8 10 11 12 14 17 19 20 22 25 27 28 26 27 29 31 33 33 30 27 28 29 31 34 34 35 35 34 34 34 34 35 35 36 37 36 35 35 31 25 25 27 30 31 31 30 29 30 31 32 31 29 28 27 26 25 25 25 26 28 28 29 29 24 17 16
27 27 26 24 22 20 17 15 14 12 10 8 5 3 2 3 4 4 6 8 9 11 12 13 15 18 23 26 27 28 27 25 26 29 30 32 32 28 26 26 28 31 34 34 35 35 33 34 34 35 36 36 36 37 37 37 36 30 25 24 26 27 30 30 28 28 31 33 34 33 31 30 29 28 27 26 27 28 26 23 23 20 13 9 11
28 28 27 25 22 20 18 15 14 12 10 8 5 3 1 2 3 4 5 7 10 11 12 12 14 18 24 27 26 25 24 24 25 27 29 31 31 28 27 27 27 30 33 34 34 35 35 35 36 36 36 36 37 38 38 38 35 28 24 25 25 25 29 29 26 25 25 28 31 32 32 33 32 30 31 30 30 32 29 24 23 18 10 8 10
30 29 27 24 21 19 18 15 14 11 9 7 5 2 0 2 3 4 5 7 10 10 10 11 14 18 22 24 22 22 23 24 25 27 29 31 30 29 28 27 27 29 32 34 35 35 36 36 36 36 36 36 37 38 37 37 34 29 25 24 23 24 27 27 24 22 20 21 23 25 29 32 32 31 32 32 32 35 35 33 31 24 14 9 10
31 29 27 24 21 19 17 15 13 10 8 6 3 2 1 2 4 5 6 8 8 9 9 12 16 18 19 19 19 20 22 25 26 27 29 31 31 32 30 26 26 29 31 33 35 36 35 35 34 34 34 35 36 37 37 36 35 32 28 23 20 22 25 25 24 23 21 20 19 20 23 27 29 29 30 31 33 35 36 35 35 32 25 16 12
31 30 27 24 22 19 17 15 12 10 8 5 3 2 2 3 4 5 7 8 8 10 12 13 15 17 18 17 17 18 21 24 26 27 29 31 32 33 31 26 26 29 30 32 34 34 34 34 34 35 35 36 37 37 37 36 35 34 31 27 26 27 28 26 25 24 23 22 22 22 22 23 25 27 28 31 33 33 33 35 35 35 34 26 18
31 29 27 24 22 19 17 15 13 10 8 6 4 2 2 3 4 6 7 8 9 11 12 12 14 16 17 16 17 19 20 22 25 27 29 31 33 34 32 30 32 32 30 30 32 33 34 34 35 37 38 39 40 39 38 37 36 35 34 31 31 32 32 29 25 23 22 21 21 22 22 22 22 24 26 29 30 29 31 34 35 35 38 38 32
31 29 27 24 21 19 17 15 13 11 9 6 5 3 2 3 4 6 8 7 8 9 10 12 14 16 16 15 17 19 20 21 24 26 28 31 34 35 33 34 35 34 30 30 31 32 33 34 36 40 43 45 44 43 41 40 37 35 34 33 31 32 32 28 26 24 22 20 20 20 20 20 21 22 25 26 26 26 29 33 35 36 39 41 41
30 28 27 24 21 20 17 15 13 11 9 7 6 4 3 3 4 6 7 5 6 8 10 13 14 14 16 17 18 19 20 22 24 26 28 32 34 35 35 36 36 35 32 31 31 32 33 36 40 44 46 46 46 45 42 40 38 36 35 33 31 31 30 26 25 24 22 19 19 19 19 20 21 22 25 26 26 28 30 33 36 36 37 37 39
30 29 27 24 22 20 17 15 13 11 10 8 7 5 4 4 5 6 5 4 5 8 11 12 13 14 16 18 19 20 21 23 24 25 29 32 33 34 36 36 36 35 33 31 31 33 35 39 41 42 41 42 41 38 33 31 32 34 35 34 32 29 27 25 25 23 20 18 18 18 19 20 22 23 25 27 28 30 30 33 35 34 34 34 35
31 29 27 24 23 20 18 17 14 12 11 9 7 6 5 5 5 4 3 3 5 8 10 11 13 15 16 17 20 21 22 23 24 25 29 32 33 34 36 35 35 34 32 31 32 33 34 36 37 36 36 37 35 28 22 24 26 28 29 30 29 27 24 24 24 22 19 18 18 19 19 20 21 22 24 26 27 29 30 29 28 27 28 27 25
33 30 27 25 23 21 19 17 14 13 12 10 9 7 6 6 5 3 1 2 5 8 10 11 12 14 15 17 19 21 22 23 24 26 31 34 34 34 34 34 34 33 31 31 31 29 30 32 33 32 32 32 32 28 22 21 24 25 24 24 23 23 23 23 23 21 20 19 18 19 20 21 21 21 22 24 25 28 30 28 24 22 23 23 19
33 31 28 26 23 21 19 17 15 14 13 11 10 8 6 6 4 2 0 2 6 9 11 12 12 14 16 17 18 19 20 22 24 29 33 35 36 36 35 34 33 32 32 33 30 27 28 29 29 28 29 29 28 28 26 23 20 19 20 21 21 21 21 22 23 23 21 20 19 19 19 19 19 20 21 22 24 27 28 26 24 20 19 20 14
33 30 28 25 23 21 19 17 15 14 13 12 10 8 6 6 5 3 2 3 7 10 12 12 13 15 16 17 17 18 19 22 27 32 34 34 35 36 35 34 33 32 33 34 28 24 26 27 25 25 26 26 24 24 24 25 24 21 17 15 17 19 19 19 20 21 20 18 18 18 17 16 18 19 19 20 23 25 24 24 22 19 18 15 10
32 29 27 25 23 21 19 17 15 14 13 12 11 10 8 6 5 4 3 5 7 9 10 11 13 15 15 15 16 18 21 25 30 33 33 33 34 34 33 34 33 32 34 33 25 21 24 24 22 24 24 22 21 21 22 22 22 22 22 20 16 15 18 18 17 16 16 16 17 17 17 16 17 17 17 17 19 21 21 22 21 18 15 11 7
32 29 28 26 24 22 20 17 15 13 12 11 11 11 10 8 7 6 4 5 6 8 9 11 13 14 14 15 16 18 21 26 29 31 31 32 32 33 33 33 32 32 34 29 21 20 22 20 20 23 23 21 20 20 21 21 20 20 21 22 21 19 15 14 15 15 16 16 16 17 17 17 17 17 17 17 18 17 18 18 18 18 15 12 9
35 32 29 26 25 23 20 18 16 14 12 11 10 9 9 8 7 5 5 6 5 7 10 13 14 15 15 16 18 19 22 26 27 29 30 30 31 32 32 32 31 33 34 29 21 20 21 19 19 22 21 20 20 21 21 21 20 20 20 19 20 21 19 18 18 16 16 17 16 16 17 17 17 19 20 19 17 14 14 12 14 16 14 12 12
38 35 31 28 26 24 21 19 17 15 14 12 11 10 9 9 8 6 8 8 7 6 9 13 15 16 16 18 20 22 24 26 27 28 29 30 31 31 31 30 30 30 29 26 21 20 21 20 20 21 21 20 21 22 22 21 21 21 20 18 19 21 22 24 26 21 15 16 18 17 17 18 17 19 20 19 15 12 10 11 12 14 12 8 9
38 36 33 31 29 25 23 21 18 16 15 13 12 12 10 9 8 7 10 11 10 10 12 14 16 17 18 19 21 23 25 26 27 27 28 29 30 31 31 32 31 30 28 25 22 21 21 21 21 22 22 22 22 22 22 22 22 22 21 20 20 22 23 23 22 20 18 16 17 17 18 19 19 18 17 15 13 10 8 10 10 8 8 7 6
36 34 32 31 29 26 24 22 19 18 16 15 14 12 11 10 9 6 4 5 8 12 15 17 17 17 17 20 21 23 25 26 26 26 27 29 30 32 33 33 32 33 32 29 25 23 22 21 23 24 23 22 23 23 22 22 22 22 22 22 22 22 22 21 20 20 20 19 17 16 18 20 20 19 16 12 9 7 6 8 9 8 8 8 7
36 34 31 29 28 27 25 22 20 18 17 15 14 13 11 11 9 6 3 1 4 8 13 18 19 17 17 20 22 24 26 26 26 26 25 26 29 31 29 24 23 24 26 26 25 24 23 23 23 25 25 23 23 23 23 23 23 22 22 23 22 22 21 20 21 21 21 20 20 18 18 19 18 17 15 11 9 8 8 9 10 10 10 12 11
38 36 32 30 28 27 24 22 20 18 17 16 15 13 12 11 9 6 4 2 4 5 10 16 19 18 19 23 25 26 27 27 26 26 26 28 31 30 23 17 16 17 20 23 24 24 25 25 24 25 26 25 24 24 24 23 23 22 21 22 22 21 21 21 21 21 20 19 20 20 18 18 17 15 13 10 7 9 10 10 11 10 11 17 16
37 35 33 31 29 27 25 23 20 18 17 16 14 14 13 11 9 7 5 4 5 6 9 13 14 14 18 23 25 24 26 28 30 30 32 33 32 26 19 15 15 15 16 20 23 24 25 27 27 27 27 26 25 24 24 24 24 22 22 22 22 21 22 22 21 20 19 18 19 21 20 17 15 14 13 10 7 8 10 10 10 8 8 14 15
34 33 31 30 28 26 25 24 21 19 18 16 15 14 13 12 10 7 5 5 6 7 9 11 12 12 14 19 22 22 24 26 26 26 29 31 30 25 20 16 17 19 21 25 28 29 28 28 29 28 28 28 27 25 24 24 24 23 22 22 23 23 23 21 21 21 20 20 19 20 21 20 16 12 13 12 9 9 11 11 10 9 7 8 13
34 32 29 28 28 25 24 23 21 20 18 17 15 14 13 12 10 8 6 5 6 7 8 9 12 13 14 16 18 18 20 21 21 21 23 26 29 30 25 19 19 24 29 33 36 37 34 34 32 29 29 32 30 26 24 25 24 24 24 22 22 24 23 21 21 21 21 21 21 20 19 21 20 14 11 13 11 10 12 12 11 12 11 12 15
35 32 28 27 27 26 24 23 21 19 18 16 15 14 13 12 10 8 7 6 5 6 7 9 11 12 13 14 14 15 16 19 21 22 23 25 28 31 30 26 25 26 30 35 39 39 39 41 38 32 32 37 36 29 27 27 26 25 25 24 22 23 23 22 21 21 21 22 22 21 20 20 20 18 12 11 12 12 13 14 13 13 13 15 18
37 33 30 29 29 27 25 24 21 19 18 16 15 14 13 12 10 8 7 6 5 5 7 9 11 12 13 13 13 15 18 20 22 24 25 28 30 30 31 32 32 31 34 37 38 38 39 42 41 36 36 42 41 33 28 29 30 28 28 27 25 24 24 25 25 24 23 23 22 21 22 21 19 20 17 11 11 12 12 13 15 14 13 14 16
37 35 33 32 30 27 26 24 22 20 18 16 15 15 13 12 10 8 7 6 5 6 7 10 11 13 14 14 14 16 19 21 23 24 26 29 31 31 33 35 35 36 38 39 39 39 40 40 40 39 40 44 44 35 28 30 33 33 32 31 28 26 27 28 28 27 26 25 24 23 23 21 19 18 18 14 11 12 12 12 14 15 14 14 16
37 35 33 32 29 27 25 23 21 20 18 16 16 15 13 12 10 8 7 6 6 6 7 9 11 12 14 15 16 18 19 21 22 24 26 28 31 32 33 35 36 37 39 40 40 41 41 39 40 43 44 46 46 38 31 31 34 36 36 34 31 31 33 33 32 31 29 28 26 24 22 21 19 17 17 14 11 12 12 11 13 15 15 14 15
37 35 34 32 29 27 25 23 20 20 18 17 16 15 13 11 10 9 8 7 6 6 7 8 10 12 14 15 16 18 19 20 21 23 25 27 29 31 32 34 35 36 38 40 41 42 42 41 43 46 47 48 47 42 36 34 35 38 38 35 33 34 37 37 35 33 31 28 27 24 22 20 19 17 16 14 11 12 13 12 13 15 15 15 14
37 36 35 33 30 28 25 23 21 19 18 17 16 15 13 11 9 8 8 7 6 6 6 8 9 10 13 15 16 17 18 19 20 23 24 26 28 29 31 33 34 35 37 38 40 42 43 43 44 47 48 48 48 45 38 34 35 40 42 39 37 39 41 39 36 33 31 30 28 25 22 21 19 17 16 15 13 11 12 13 14 15 15 15 16
37 36 34 33 31 28 25 23 21 19 17 16 15 14 13 11 9 8 8 7 6 6 6 7 8 10 12 13 15 16 17 18 19 21 23 25 27 28 30 32 33 35 36 37 39 41 43 43 45 47 49 49 49 47 39 32 34 42 46 44 44 46 45 42 38 35 33 33 32 28 24 21 19 18 17 16 14 13 12 13 14 16 17 16 17
36 35 33 31 30 28 26 23 21 19 18 17 15 14 12 11 9 8 8 7 6 6 6 6 8 10 11 12 13 15 16 17 18 20 22 24 26 27 28 31 32 34 35 37 38 40 41 43 44 47 48 49 50 48 39 31 34 44 49 48 49 50 47 43 40 38 36 36 35 31 26 22 20 19 18 15 12 13 15 14 14 16 16 16 17
36 35 33 31 29 28 26 24 22 20 18 17 15 14 12 10 9 8 7 6 6 5 5 6 8 9 10 11 13 14 15 16 18 19 20 23 25 26 27 29 31 33 34 36 37 39 40 42 43 45 47 49 50 47 39 31 35 46 53 53 51 51 49 45 43 42 40 38 39 37 32 28 26 24 21 17 11 7 12 16 16 16 16 14 15
35 34 32 30 28 26 24 23 21 19 18 16 15 14 12 10 9 8 7 6 6 5 5 6 7 8 10 10 12 13 14 16 17 18 19 21 23 25 27 28 30 32 33 34 36 38 39 40 42 44 45 48 49 47 40 34 35 44 52 53 52 51 50 46 45 44 42 40 41 42 38 33 32 31 27 22 18 11 4 9 15 17 16 14 14
34 32 31 29 28 26 24 23 21 19 18 16 15 14 12 10 9 8 7 6 6 4 4 5 6 7 8 9 11 12 13 14 15 16 17 19 21 24 26 27 29 31 33 33 35 37 38 39 42 43 44 46 48 45 41 38 38 42 48 52 53 51 49 46 45 45 44 42 43 45 43 38 34 33 31 27 23 19 14 6 5 14 17 16 16
Wind_Direction
196 197 199 202 203 204 208 212 216 222 228 235 245 256 267 275 281 288 295 301 308 317 323 321 314 308 303 297 289 283 282 280 279 277 274 274 271 270 272 271 269 271 276 277 273 267 265 265 264 263 262 263 262 263 262 260 259 258 256 257 256 255 256 256 261 268 263 260 261 261 262 264 265 264 264 266 267 269 271 273 278 277 276 280 275
194 196 198 199 202 203 206 211 215 220 227 236 249 260 271 280 285 295 303 308 316 324 324 318 313 310 306 301 294 286 283 282 280 278 277 275 273 272 273 274 273 275 278 277 271 267 266 265 266 266 264 264 264 263 264 262 262 260 257 257 257 255 254 254 257 265 264 259 258 258 257 258 262 263 263 265 267 270 272 272 277 279 275 278 276
193 194 195 197 200 202 205 210 214 220 227 235 249 262 273 283 292 302 308 313 321 325 322 315 313 311 304 299 294 287 285 285 282 281 279 277 277 275 276 277 278 280 279 275 271 269 268 266 266 267 265 265 265 263 263 263 262 263 261 258 259 258 256 255 257 262 267 265 262 258 256 257 261 263 262 264 266 268 273 274 277 282 279 276 275
190 191 192 195 197 200 204 208 211 218 224 233 247 262 276 288 300 307 308 313 320 321 318 316 314 309 299 294 293 289 288 288 286 284 282 279 280 280 280 282 281 281 280 276 272 270 269 268 267 267 266 266 266 264 263 262 260 262 264 262 261 260 258 256 256 258 261 266 264 259 260 263 264 264 263 264 265 266 271 276 277 282 280 275 275
187 188 190 191 194 198 202 205 209 213 220 230 246 262 279 291 300 306 307 311 318 318 317 316 313 305 295 292 292 291 291 291 288 287 285 283 284 283 285 286 282 280 278 274 273 272 271 270 268 267 266 265 266 265 264 264 262 261 263 264 263 262 260 256 254 255 256 257 260 259 262 266 264 262 262 265 269 270 272 275 274 278 278 275 274
184 185 186 187 190 195 198 202 206 211 219 229 244 260 276 290 298 304 306 311 317 317 315 316 312 302 294 293 292 291 292 291 289 289 289 288 288 286 287 288 283 280 278 274 273 273 273 272 269 267 264 262 265 266 265 265 264 263 263 263 263 263 265 263 259 260 260 260 260 257 259 263 260 259 262 263 267 271 277 280 275 274 273 272 274
182 182 183 184 188 193 196 201 205 210 218 226 241 259 274 290 299 304 307 312 317 316 315 314 309 301 297 297 295 292 292 291 290 292 292 292 290 289 289 288 284 281 279 277 274 273 272 271 269 266 261 260 262 264 266 264 263 263 262 263 263 261 264 267 268 269 270 268 266 259 256 259 259 261 263 262 264 268 276 282 280 277 271 268 271
179 179 181 183 187 192 195 200 204 209 217 225 241 260 276 291 298 302 307 313 315 316 316 312 305 301 300 298 295 294 293 291 290 292 294 295 293 291 290 288 285 283 281 280 277 274 273 270 268 264 260 260 261 261 262 262 261 262 262 263 264 260 259 263 266 270 273 274 271 261 253 253 255 258 261 263 266 266 268 272 276 281 279 274 269
175 177 180 182 186 190 194 198 202 208 216 227 243 260 275 289 296 301 308 314 315 316 317 314 306 301 298 296 294 294 293 290 290 291 294 297 296 293 291 288 286 284 281 279 276 273 273 271 269 266 260 258 259 258 258 259 259 259 259 261 261 259 259 259 259 262 265 272 272 258 247 246 248 248 254 258 260 269 275 273 274 280 281 279 274
174 177 179 182 186 189 192 196 199 205 215 225 240 258 275 286 293 302 309 314 316 319 320 316 307 299 295 296 295 294 292 289 290 292 294 297 297 296 294 290 287 284 280 277 273 271 271 270 270 269 262 258 260 260 258 259 259 258 258 257 256 256 257 256 257 258 257 265 272 260 241 239 244 242 249 259 264 272 277 275 276 279 279 279 276
176 178 180 183 188 189 190 193 196 203 213 224 237 255 273 282 293 305 312 315 318 321 319 310 302 297 294 295 296 295 293 293 295 296 297 299 299 298 295 292 289 286 285 283 279 278 277 274 273 272 265 259 260 262 260 260 259 260 260 257 256 258 257 253 254 258 255 257 268 268 255 240 248 249 251 262 270 273 275 274 275 277 273 271 271
176 177 179 183 186 187 188 191 195 201 210 221 232 251 269 283 300 310 313 317 319 318 314 306 301 301 296 295 296 294 295 299 300 299 301 303 303 301 297 294 292 291 289 289 287 286 286 284 281 279 273 267 263 262 262 261 259 260 261 260 261 263 259 253 251 253 253 254 261 268 267 258 255 254 256 266 273 275 280 281 280 281 276 268 259
175 176 180 183 184 186 188 189 192 199 206 215 225 247 269 286 306 314 317 319 314 308 309 307 305 304 298 298 297 293 297 305 304 302 305 306 306 305 301 296 295 294 292 292 291 290 289 288 285 283 280 276 270 263 259 259 258 258 259 260 263 264 260 256 252 249 249 251 254 259 265 266 264 261 261 267 274 281 287 285 284 286 282 277 272
174 176 179 182 184 186 186 186 190 196 201 208 219 241 269 292 311 319 319 314 305 303 307 308 307 305 302 302 300 295 301 308 307 304 308 310 309 308 305 300 299 296 294 293 292 290 288 287 285 283 281 280 276 268 260 257 258 258 257 260 263 263 260 258 256 250 246 247 250 255 261 263 264 265 266 265 268 276 280 280 284 286 285 289 290
174 177 178 181 183 184 184 185 188 193 197 203 214 234 270 302 316 321 314 302 299 302 305 306 306 304 302 301 299 297 302 306 305 306 310 312 312 311 306 303 302 298 296 294 292 290 289 286 284 283 282 281 279 274 266 261 260 259 257 260 265 264 261 258 256 252 247 246 249 254 259 259 258 261 265 265 267 270 273 277 281 283 286 291 292
173 176 178 181 183 182 182 183 186 190 193 197 206 222 267 312 324 318 304 296 298 301 302 301 303 305 308 309 305 303 304 304 305 309 313 313 314 312 307 304 302 298 297 295 293 291 288 286 284 283 281 281 280 277 272 268 266 263 258 259 263 265 264 260 256 253 250 250 252 255 260 260 258 260 262 264 268 270 272 275 274 276 284 289 286
173 176 179 181 181 181 181 182 185 188 190 194 201 209 259 321 329 313 296 293 296 301 301 297 297 303 311 315 311 304 303 304 307 310 314 315 315 313 308 304 299 297 297 296 295 293 290 287 286 284 283 281 281 280 277 273 270 265 260 259 260 262 264 263 261 257 253 252 253 255 259 260 260 261 260 262 265 265 268 270 266 269 274 269 277
174 178 180 180 179 179 179 181 184 186 187 189 191 196 249 322 331 313 297 297 303 307 304 295 294 303 311 315 312 303 300 304 309 311 315 317 317 315 310 305 299 297 300 300 298 297 293 290 288 285 284 283 282 282 279 274 269 263 259 261 260 261 263 263 263 260 255 254 253 253 256 258 259 260 259 260 262 260 259 260 263 268 261 248 271
177 178 178 178 178 177 177 180 181 182 183 183 179 174 253 344 340 316 305 311 315 313 302 291 295 303 308 309 306 301 301 305 310 313 316 318 319 317 312 306 301 301 303 303 302 300 297 294 290 286 285 284 284 284 282 276 269 260 254 255 257 260 263 264 263 261 257 254 251 249 251 254 255 257 257 259 259 256 254 255 259 259 249 245 258
175 175 175 176 176 175 176 177 177 175 175 173 164 136 41 356 340 324 323 324 318 311 308 303 300 301 301 300 300 301 303 305 310 315 318 319 321 320 316 310 306 306 307 306 305 303 300 297 293 290 289 288 287 287 286 282 276 266 254 245 247 257 260 260 261 262 261 260 257 252 251 253 254 254 254 255 255 254 253 253 254 251 242 243 248
172 173 173 173 174 173 173 172 170 167 165 157 140 104 43 355 339 334 335 333 324 322 322 313 301 300 303 301 301 303 306 307 311 315 318 320 323 323 320 316 313 311 309 308 306 305 303 300 297 294 293 291 290 289 287 285 282 276 264 249 245 253 258 258 257 257 258 261 263 261 258 257 257 253 252 252 251 253 254 254 255 251 243 237 236
170 170 170 170 171 170 169 168 164 159 155 142 120 100 40 4 353 344 341 339 332 328 324 312 303 305 307 306 306 307 309 311 313 315 319 322 324 324 323 320 319 316 312 308 307 305 304 302 299 297 295 293 290 289 287 285 282 280 273 262 254 253 255 256 256 255 254 254 257 258 255 255 255 252 252 253 252 254 260 262 261 255 243 235 231
168 168 167 167 167 167 166 163 157 151 145 133 119 105 48 16 8 355 350 345 333 326 321 314 311 311 310 310 312 312 312 315 316 318 321 324 325 325 324 322 322 320 314 309 307 306 305 303 301 299 297 294 291 287 284 281 279 278 275 268 259 254 253 254 254 254 254 252 252 253 251 251 253 253 255 257 260 265 269 271 267 255 244 237 233
165 165 166 164 163 164 163 159 153 146 137 129 122 110 66 36 23 5 359 351 332 325 322 319 317 318 317 315 315 316 317 318 319 321 325 327 327 326 326 326 326 323 318 312 308 307 307 307 306 303 300 298 296 290 284 277 272 271 270 267 261 255 251 251 252 252 251 248 249 250 251 249 249 254 259 263 270 276 276 277 272 256 245 241 236
164 163 163 162 162 161 159 155 149 141 134 128 120 108 78 49 34 16 5 354 334 326 324 322 322 322 320 317 317 319 320 321 322 324 326 329 330 329 329 329 328 326 322 316 312 313 314 312 310 308 307 307 305 296 283 275 271 267 264 263 260 255 250 247 249 251 250 248 248 249 251 252 250 254 263 269 276 280 277 275 269 255 245 245 240
162 161 160 160 161 160 157 154 146 136 131 125 117 106 81 60 50 29 3 347 333 322 321 324 326 323 321 319 319 320 321 323 324 326 329 331 333 333 332 331 331 330 326 321 320 320 319 317 317 316 314 317 319 310 285 271 271 269 264 259 254 249 248 247 248 250 250 249 252 251 249 253 254 257 266 272 275 276 273 265 254 240 230 228 224
159 159 158 159 159 160 159 155 146 135 129 125 120 106 80 69 67 53 13 335 330 323 324 329 328 324 322 321 321 321 322 325 327 330 334 337 336 336 336 335 334 333 331 329 327 324 321 321 323 322 321 324 333 335 318 289 273 264 259 257 250 242 242 245 247 250 250 249 252 252 250 252 255 259 267 270 270 273 269 253 232 220 211 199 187
159 158 158 158 158 158 157 153 142 132 128 126 124 114 94 86 84 81 59 324 323 324 329 331 328 326 324 322 322 322 322 326 331 335 338 339 338 338 339 339 338 336 335 334 330 325 325 327 327 329 332 334 339 343 339 328 308 281 259 249 242 236 236 240 244 246 249 251 255 255 252 252 256 261 265 267 270 273 264 239 217 206 193 178 166
157 156 156 155 156 155 151 146 139 131 126 123 121 116 104 93 88 86 56 346 331 328 330 330 329 328 326 324 324 324 324 328 334 337 338 340 340 341 341 340 340 339 339 337 332 328 333 336 335 337 340 340 340 339 338 338 337 329 311 279 252 237 232 235 243 243 242 246 251 255 256 256 258 264 265 265 272 271 252 224 207 197 183 169 160
155 155 155 156 156 153 146 142 138 131 124 121 117 113 108 96 85 76 40 352 340 339 337 334 333 332 329 327 328 326 326 330 335 338 340 342 343 343 343 342 343 345 345 343 340 340 343 342 341 342 342 340 340 339 336 335 336 336 335 327 305 272 245 234 236 239 240 244 247 251 258 260 260 265 264 266 275 267 239 213 200 191 178 163 153
154 156 158 157 156 152 146 143 140 132 125 118 112 108 107 106 103 91 52 8 355 355 349 343 342 340 337 337 335 332 333 336 339 341 343 343 344 346 345 345 347 351 351 350 350 350 346 341 340 342 341 339 339 337 334 334 334 331 330 330 329 319 293 261 245 236 235 243 250 253 258 259 260 263 263 269 275 259 228 209 200 192 176 160 156
156 157 159 157 153 151 148 145 143 137 129 119 107 96 87 83 88 86 52 34 30 15 360 354 352 351 349 348 345 343 343 343 343 345 345 345 346 348 348 351 354 355 355 357 360 354 346 340 338 338 337 337 338 337 335 334 332 331 328 324 325 328 323 313 302 277 245 237 244 252 254 252 256 263 262 267 273 251 217 205 204 192 175 160 156
160 158 158 155 151 151 149 147 145 140 133 124 115 102 84 67 52 23 11 24 44 39 18 8 3 1 360 357 353 350 348 347 348 348 348 349 350 348 350 357 1 358 357 359 358 352 345 340 336 334 333 334 335 335 336 334 331 330 328 323 319 319 317 317 319 310 280 250 241 247 254 252 256 265 263 261 265 251 211 201 205 191 173 162 158
162 160 158 154 152 152 151 149 147 142 136 130 121 113 103 90 71 35 8 4 4 5 9 15 16 14 8 1 357 354 352 351 351 349 349 351 351 350 354 2 4 2 1 1 357 350 345 341 337 333 331 332 335 335 334 334 333 331 327 322 319 318 316 316 318 320 311 286 257 246 254 258 259 263 263 257 259 254 217 202 211 197 167 157 157
160 158 156 154 153 152 151 151 148 143 139 135 128 121 116 109 97 77 40 354 334 331 340 355 11 19 12 2 358 356 353 353 352 352 352 353 353 357 3 6 3 360 359 358 354 349 342 338 336 333 329 329 333 335 333 331 332 331 329 325 321 318 319 320 320 321 321 312 291 267 259 261 261 258 256 253 253 251 220 204 216 210 168 154 162
157 154 153 155 154 153 151 150 148 145 141 136 132 127 120 113 105 95 85 352 307 311 327 344 2 16 17 13 11 6 358 355 353 352 352 353 357 4 8 3 354 351 350 348 347 346 341 336 334 332 330 328 329 333 334 330 328 328 329 328 324 319 320 324 324 322 320 317 310 294 270 259 258 254 249 245 241 243 229 210 215 214 174 153 155
156 154 154 156 155 152 150 149 147 146 142 135 131 127 119 111 105 97 83 11 334 325 332 347 0 8 10 14 17 10 360 358 2 4 4 4 6 9 8 355 343 342 341 340 341 342 340 337 334 332 331 328 328 331 333 330 328 329 331 331 328 324 322 323 322 321 319 317 319 315 292 267 254 247 243 237 231 238 232 211 210 217 184 157 152
157 155 155 155 154 151 150 149 148 146 141 136 132 127 118 110 102 93 77 34 9 353 345 353 2 359 357 5 10 2 355 2 11 11 8 7 6 3 357 349 343 339 335 336 340 340 338 336 334 333 332 329 328 331 333 330 329 330 330 331 331 330 329 328 326 324 324 323 324 327 318 293 265 243 234 231 223 224 226 215 206 208 185 161 157
155 154 154 154 153 153 152 151 150 147 142 137 133 127 118 110 104 95 73 43 24 8 356 358 360 354 355 4 4 354 352 0 5 0 356 358 359 357 353 349 346 345 344 343 344 345 341 336 333 333 333 332 329 330 333 333 331 330 330 331 334 336 335 334 332 330 329 327 324 325 326 316 296 260 229 223 224 217 216 214 204 195 183 165 167
152 152 153 153 153 153 153 152 150 148 144 139 134 128 118 110 106 98 80 57 33 14 3 357 356 358 3 5 360 351 351 356 356 349 346 350 355 358 357 351 348 348 348 347 347 348 346 341 337 334 334 335 332 330 333 335 333 333 335 334 335 338 338 336 334 332 328 326 322 319 321 322 316 295 244 218 217 217 211 207 202 196 188 175 172
151 151 152 154 155 154 153 152 151 149 146 140 134 128 119 112 108 100 85 69 41 18 8 0 0 7 11 3 354 354 359 1 357 353 350 351 355 357 356 353 352 351 347 346 348 348 348 347 344 338 337 340 339 335 338 341 338 336 338 337 335 337 339 338 337 334 329 325 321 316 314 317 320 315 287 233 214 215 212 205 201 200 195 184 177
153 152 154 157 157 156 154 153 152 149 146 140 134 127 120 114 110 102 91 76 49 24 11 5 7 16 19 13 4 5 10 9 3 357 356 357 357 357 355 354 355 354 351 350 351 350 349 350 348 343 342 346 343 336 337 344 343 339 339 340 340 341 342 340 338 336 331 326 320 315 313 312 314 316 307 267 220 208 209 205 200 199 197 189 181
156 155 156 158 158 157 155 153 151 149 147 142 135 128 121 117 113 106 99 86 59 32 17 10 11 17 21 21 18 16 15 11 5 0 360 360 358 357 356 356 358 358 358 358 357 355 353 353 352 348 348 351 349 343 341 348 349 344 341 342 342 344 346 343 338 336 334 329 322 316 313 310 308 312 309 285 234 204 201 203 201 198 196 190 181
155 155 155 156 156 156 154 152 151 150 148 142 135 128 121 119 117 111 105 94 70 45 28 17 14 16 18 19 20 19 15 10 5 2 3 2 359 358 358 358 359 1 2 2 2 1 359 357 356 354 354 356 356 352 348 349 351 349 348 348 348 349 350 346 340 335 333 328 322 316 313 308 304 305 307 293 250 208 196 198 198 197 196 189 181
156 155 155 154 154 154 153 152 154 153 148 141 135 129 124 122 122 117 110 98 78 56 39 26 19 18 18 18 19 17 12 8 5 4 4 3 1 359 360 1 2 3 4 4 5 5 4 2 360 358 357 357 358 358 355 354 355 356 355 354 354 353 351 346 341 337 333 327 320 314 309 305 300 297 300 294 261 217 199 197 196 195 194 189 182
158 156 155 154 154 153 154 155 155 153 148 142 136 131 128 128 125 119 112 101 86 66 47 32 26 24 20 18 17 14 10 7 6 6 6 5 3 2 3 4 4 5 6 7 7 8 7 5 3 1 359 358 358 358 357 356 359 1 1 360 360 358 354 350 347 343 339 335 330 321 312 307 299 294 295 291 268 227 202 196 195 194 194 192 188
159 157 156 155 154 153 155 156 156 153 149 144 138 135 134 134 129 122 113 102 88 73 53 36 30 28 25 21 17 13 10 9 8 7 7 7 6 6 6 6 7 7 9 9 10 10 9 8 6 4 1 360 359 358 356 355 0 3 3 3 3 1 358 356 354 349 345 345 344 338 328 318 308 302 301 291 263 227 200 193 194 193 193 194 192
159 158 156 155 154 155 156 157 156 155 151 146 142 140 139 138 133 126 118 107 92 76 58 41 33 30 27 22 17 12 10 10 10 10 9 9 8 8 9 9 8 8 9 10 11 12 11 10 9 7 4 2 1 0 358 358 1 4 4 4 3 3 2 1 360 356 354 356 359 358 352 342 331 326 326 314 274 225 200 192 192 192 191 191 191
159 158 156 156 156 157 157 158 158 157 153 149 146 144 143 143 139 131 121 112 100 82 59 43 35 30 26 21 16 12 11 11 12 11 10 9 9 9 10 10 11 10 10 10 11 12 12 12 11 9 7 5 4 3 1 359 1 5 6 5 4 4 5 6 5 2 1 4 8 11 10 5 359 357 357 350 328 258 209 197 191 188 189 189 187
160 158 157 157 158 157 157 158 158 156 154 152 149 147 148 148 143 137 129 117 106 89 65 48 38 29 23 18 12 11 11 11 11 10 9 9 9 10 10 11 12 11 11 11 11 12 13 13 12 10 9 7 6 6 4 360 1 6 8 7 6 5 6 7 8 7 7 10 13 16 16 14 11 11 11 8 3 354 296 215 196 188 186 186 185
159 158 157 157 158 157 158 158 158 157 156 154 152 152 154 152 146 141 133 121 111 96 71 56 41 27 21 15 10 10 11 10 8 7 8 8 9 9 10 10 11 11 11 12 12 12 13 13 12 11 9 7 7 7 6 1 360 4 8 9 8 7 6 7 8 9 12 16 18 19 20 20 17 14 13 13 12 10 5 347 217 194 188 186 185